www.pogodaiklimat.ru

Погода и климат >> Архив погоды >> Канада >> Mould Bay Cs


ПОГОДА в Mould Bay Cs

  • Прогноз погоды в Mould Bay Cs
  • Монитор погоды в Mould Bay Cs
  • Климат города

АРХИВ ПОГОДЫ в Mould Bay Cs

Время (UTC), дата Ветер
(напр.,м/с)
 
Видим.   Явления Облачность Т
(С)
Тd
(С)
f
(%)
Тe
(С)
Тes
(С)
Комфортность P
(гПа)
Po
(гПа)
Тmin
(С)
Tmax
(С)
R
(мм)
R24
(мм)
S
(см)
12 4.12 штиль 0 н/о н/о -34.1 -37.5 71 -34 -34 опасность
обморожения
1025.6 1023.9 -36.9 -25.0
15 4.12 ЮВ 1 н/о н/о -32.6 -35.8 73 -34 -34 опасность
обморожения
1024.2 1022.5
18 4.12 СВ 1 н/о н/о -33.5 -36.9 71 -38 -38 опасность
обморожения
1022.4 1020.7 -36.9 -32.3
21 4.12 штиль 0 н/о н/о -31.8 -34.9 74 -32 -32 опасность
обморожения
1020.8 1019.1
00 5.12 штиль 0 н/о н/о -30.9 -33.9 75 -31 -31 опасность
обморожения
1019.4 1017.7 -36.9 -30.0
03 5.12 Ю 1 н/о н/о -29.0 -31.9 76 -33 -33 опасность
обморожения
1017.4 1015.7
06 5.12 Ю 3 н/о н/о -28.3 -31.2 76 -38 -38 опасность
обморожения
1015.1 1013.4 -36.9 -26.8
09 5.12 Ю 7 н/о н/о -22.7 -24.9 82 -35 -35 опасность
обморожения
1012.8 1011.1
12 5.12 Ю 6 н/о н/о -22.0 -24.1 83 -34 -34 опасность
обморожения
1010.3 1008.6 -31.7 -26.8
15 5.12 Ю 10 н/о н/о -21.3 -23.2 85 -35 -35 опасность
обморожения
1007.3 1005.6
18 5.12 Ю 8 н/о н/о -19.1 -20.8 86 -31 -31 опасность
обморожения
1005.9 1004.2 -33.5 -19.1
21 5.12 Ю 7 н/о н/о -18.1 -19.7 87 -29 -29 1004.6 1002.9
00 6.12 Ю 4 н/о н/о -16.7 -18.2 88 -25 -25 1003.6 1002.0 -28.3 -16.6
03 6.12 ЮЗ 6 н/о н/о -14.2 -15.4 91 -24 -24 1002.4 1000.8
06 6.12 З 6 н/о н/о -14.6 -15.9 90 -24 -24 1002.0 1000.4 -28.3 -13.9 17
09 6.12 З 5 н/о н/о -16.9 -18.4 88 -26 -26 1002.8 1001.2
12 6.12 ЮЗ 6 н/о н/о -19.1 -20.9 86 -29 -29 1002.9 1001.3 -19.1 -13.9
15 6.12 ЮЗ 4 н/о н/о -21.3 -23.3 84 -30 -30 1002.6 1001.0
18 6.12 Ю 2 н/о н/о -20.8 -22.7 85 -27 -27 1001.6 1000.0 -21.3 -14.6
21 6.12 СВ 2 н/о н/о -21.4 -23.4 84 -26 -26 1000.9 999.3
00 7.12 З 4 н/о н/о -23.0 -25.2 82 -33 -33 опасность
обморожения
1000.2 998.6 -23.1 -19.2
03 7.12 ЮЗ 4 н/о н/о -25.2 -27.6 80 -35 -35 опасность
обморожения
999.5 997.8
06 7.12 З 7 н/о н/о -29.7 -32.6 76 -44 -44 опасность
обморожения
999.2 997.5 -29.7 -14.6 13
09 7.12 З 5 н/о н/о -33.7 -37.1 71 -47 -47 опасность
обморожения
999.5 997.8
12 7.12 ЮЗ 6 н/о н/о -31.1 -34.1 75 -45 -45 опасность
обморожения
998.4 996.7 -33.9 -14.6
15 7.12 Ю 6 н/о н/о -29.5 -32.4 76 -43 -43 опасность
обморожения
996.6 994.9
18 7.12 Ю 7 н/о н/о -27.6 -30.2 78 -41 -41 опасность
обморожения
995.9 994.2 -33.9 -27.6
21 7.12 Ю 8 н/о н/о -25.9 -28.3 80 -40 -40 опасность
обморожения
995.2 993.5
00 8.12 Ю 10 н/о н/о -22.9 -25.0 83 -38 -38 опасность
обморожения
993.8 992.1 -33.9 -22.9
03 8.12 Ю 8 н/о н/о -22.2 -24.2 84 -35 -35 опасность
обморожения
993.4 991.7
06 8.12 Ю 9 н/о н/о -19.3 -21.1 86 -32 -32 опасность
обморожения
992.8 991.2 -33.9 -19.3
09 8.12 Ю 8 н/о н/о -18.9 -20.7 86 -31 -31 опасность
обморожения
993.8 992.2
12 8.12 ЮЗ 7 н/о н/о -18.4 -20.0 87 -29 -29 994.3 992.7 -22.9 -19.3
15 8.12 ЮЗ 6 н/о н/о -17.3 -18.8 88 -28 -28 994.4 992.8
18 8.12 Ю 7 н/о н/о -17.2 -18.8 87 -28 -28 994.9 993.3 -27.6 -17.0
21 8.12 Ю 10 н/о н/о -18.0 -19.7 86 -31 -31 опасность
обморожения
993.9 992.3
00 9.12 ЮВ 7 н/о н/о -19.6 -21.4 86 -31 -31 опасность
обморожения
992.9 991.3 -20.1 -17.0
03 9.12 Ю 6 н/о н/о -18.4 -20.1 86 -29 -29 989.4 987.8
06 9.12 ЮЗ 2 н/о {осадки} н/о -18.7 -20.5 86 -24 -24 987.3 985.7 -20.1 -17.0 0.2 23
09 9.12 З 7 н/о н/о -18.7 -20.4 86 -30 -30 986.4 984.8
12 9.12 СЗ 9 н/о н/о -26.3 -28.8 79 -41 -41 опасность
обморожения
988.8 987.2 -26.4 -17.0 0.2
15 9.12 З 7 н/о н/о -29.1 -31.9 77 -43 -43 опасность
обморожения
990.8 989.2
18 9.12 ЮЗ 8 н/о н/о -29.3 -32.2 76 -44 -44 опасность
обморожения
992.8 991.2 -30.2 -17.7
21 9.12 З 7 н/о н/о -30.1 -33.0 76 -45 -45 опасность
обморожения
995.4 993.7 0.2
00 10.12 ЮЗ 5 н/о н/о -31.1 -34.1 75 -44 -44 опасность
обморожения
996.5 994.8 -31.4 -26.1 0.2
03 10.12 З 4 н/о н/о -31.9 -35.0 74 -43 -43 опасность
обморожения
997.3 995.6
06 10.12 В 1 н/о н/о -34.1 -37.5 71 -39 -39 опасность
обморожения
998.0 996.3 -34.1 -17.7 19
09 10.12 СВ 2 н/о н/о -36.9 -40.6 68 -44 -44 опасность
обморожения
997.7 996.0
12 10.12 В 2 н/о н/о -36.2 -39.8 69 -43 -43 опасность
обморожения
997.4 995.7 -37.3 -17.7
15 10.12 В 1 н/о н/о -37.1 -40.8 68 -39 -39 опасность
обморожения
996.8 995.1
18 10.12 С 5 н/о {осадки} н/о -34.2 -37.5 72 -47 -47 опасность
обморожения
996.0 994.3 -38.0 -33.5 0.2
21 10.12 СЗ 4 н/о н/о -36.1 -39.7 69 -48 -48 опасность
обморожения
996.3 994.6
00 11.12 С 4 н/о н/о -34.7 -38.1 71 -47 -47 опасность
обморожения
995.8 994.1 -38.0 -34.0
03 11.12 З 2 н/о н/о -35.4 -38.9 70 -44 -44 опасность
обморожения
996.1 994.4
06 11.12 СЗ 4 н/о н/о -35.7 -39.3 69 -48 -48 опасность
обморожения
996.4 994.7 -38.0 -33.5

 

Местоположение метеостанции Mould Bay Cs (Канада): широта 76.23 долгота -119.30 высота над уровнем моря 12 м.

В архиве по умолчанию представлена погода в Mould Bay Cs за последнюю неделю. Архивные данные за месяц целиком и за предыдущие месяцы, начиная с января 2011 года, Вы можете получить, выбрав интересующий диапазон дат из раскрывающегося списка и нажав кнопку "Ввод!".


*Определитесь, кто Вы:
робот инопланетянин человек

Внимание! Время в таблицах - всемирное. Для получения местного времени необходимо прибавить поправку, которая в Mould Bay Cs равна -7 ч.

Смотрите также архив погоды в соседних городах и на ближайших метеорологических станциях:

Погода в Aulvik Ntl Park (Канада) (234 км)
Погода в Isachsen (aut) (Канада) (472 км)
Погода в Stefansson Island (Канада) (488 км)
Погода в Sachs Harbour (Канада) (503 км)
Погода в Sachs Harbour (Канада) (504 км)
Погода в Chris Hadfield (Канада) (534 км)
Погода в Holman (Канада) (611 км)
Погода в Resolute Airport (Канада) (693 км)
Погода в Resolute Cs (Канада) (694 км)
Погода в Cape Parry Airport (Канада) (695 км)

Пояснения к столбцам:

Ветер - указаны скорость ветра в м/с - средняя за 10 мин, порывы в срок и между сроками (в фигурных скобках) и направление, откуда дует ветер: С - северный, СВ - северо-восточный, В - восточный, ЮВ - юго-восточный, Ю - южный, ЮЗ - юго-западный, З - западный, СЗ - северо-западный.
Видимость - горизонтальная дальность видимости в метрах или километрах. При видимости от 1 до 10 км при отсутствии осадков обычно наблюдается дымка, при ухудшении видимости до 1 км и менее - туман. В сухую погоду видимость может ухудшаться дымом, пылью или мглою.
Явления - указаны атмосферные явления, наблюдавшиеся в срок или в последний час перед сроком; фигурными скобками обозначены явления, наблюдавшиеся между сроками (за 1-3 часа до срока); квадратными скобками обозначены град или гололедные отложения с указанием их диаметра в мм.
Облачность - указаны через наклонную черту общая и нижняя облачность в баллах и высота нижней границы облаков в метрах; квадратными скобками обозначены формы облаков: Ci - перистые, Cs - перисто-слоистые, Cc - перисто-кучевые, Ac - высококучевые, As - высокослоистые, Sc - слоисто-кучевые, Ns - слоисто-дождевые, Cu - кучевые, Cb - кучево-дождевые. Подробнее классификацию облаков см. в Атласе облаков (PDF).
T - Температура воздуха - температура, измеренная на высоте 2 м над землей.
Td - Температура точки росы - температура, при понижении до которой содержащийся в воздухе водяной пар достигнет насыщения.
f - Относительная влажность воздуха - влажноcть воздуха, измеренная на высоте 2 м над землей.
Te - Эффективная температура - температура, которую ощущает одетый по сезону человек в тени. Характеристика душности погоды. При расчете учитывается влияние влажности воздуха и скорости ветра на теплоощущения человека.
Tes - Эффективная температура на солнце - температура, которую ощущает человек, с поправкой на солнечный нагрев. Характеристика знойности погоды. Зависит от высоты солнца над горизонтом, облачности и скорости ветра. Ночью, в пасмурную погоду, а также при ветре 12 м/с и более поправка равна нулю.
P - Атмосферное давление - приведенное к уровню моря атмосферное давление.
Po - Атмосферное давление - измеренное на уровне метеостанции атмосферное давление.
Tmin - Минимальная температура - минимум температуры воздуха на высоте 2 м над землей.
Tmax - Максимальная температура - максимум температуры воздуха на высоте 2 м над землей.
R - Количество осадков - Количество выпавших осадков за период времени, мм. При наведении курсора мыши на число - период времени, за который выпало указанное количество осадков.
R24 - Количество осадков - Количество выпавших осадков за 24 часа, мм.
S - Снежный покров - Высота снежного покрова, см. При наведении курсора мыши на число - состояние снежного покрова и степень покрытия местности в баллах.